{"data":{"norad_id":54861,"intl_designator":"2022-177AT","name":"STARLINK-5400","alt_names":[],"object_type":"PAYLOAD","status":"ACTIVE","operator":null,"country":"US","launch_date":"2022-12-28","launch_site_code":"AFETR","launch_vehicle":null,"mission":null,"orbit_class":"UNKNOWN","rcs_meters":null,"size_class":null,"mass_kg":null,"dimensions":null,"purposes":["comms"],"wikipedia_slug":null,"has_3d_model":false,"image_url":null,"decayed_at":null,"tle_current":{"epoch":"2026-05-25T02:55:53.832576Z","epoch_age_seconds":67611,"freshness":"FRESH","line1":"1 54861U 22177AT  26145.12215084  .00000621  00000+0  32087-4 0  9996","line2":"2 54861  43.0055  49.6212 0001184 266.3114  93.7602 15.27575631188785","mean_motion":15.27575631,"eccentricity":0.0001184,"inclination_deg":43.0055,"raan_deg":49.6212,"arg_perigee_deg":266.3114,"mean_anomaly_deg":93.7602,"bstar":3.2087e-5,"rev_number":18878,"period_min":94.267018324803,"perigee_km":482.24981244585,"apogee_km":483.8745444113,"semimajor_km":6861.1991784286,"source":"CELESTRAK","updated_at":"2026-05-25T13:38:17.727853Z"}}}